Weather History for Ottawa Int'L. Ont., Ontario

Change the Weather History Date:

Friday, March 28, 2014

  Actual Average Record
Temperature  
Mean Temperature 32 °F -  
Max Temperature 41 °F 50 °F - ()
Min Temperature 24 °F 32 °F - ()
Degree Days  
Heating Degree Days 32    
Moisture  
Dew Point 32 °F    
Average Humidity 91    
Maximum Humidity 100    
Minimum Humidity 73    
Precipitation  
Precipitation 0.16 in 0.09 in - ()
Sea Level Pressure  
Sea Level Pressure 29.83 in    
Wind  
Wind Speed 9 mph ()    
Max Wind Speed 20 mph    
Max Gust Speed 20 mph    
Visibility 6.1 miles    
Events Rain , Snow    
T = Trace of Precipitation, MM = Missing Value Source: Averaged Metar Reports

Daily Weather History Graph

Daily Weather History Graph

Search for Another Location

Airport:

Trip Planner

Search our weather history database for the weather conditions in past years. The results will help you decide how hot, cold, wet, or windy it might be!

Date:

Astronomy

Mar. 28, 2014 Rise Set
Actual Time 6:50 AM EDT 7:25 PM EDT
Civil Twilight 6:21 AM EDT 7:55 PM EDT
Nautical Twilight 5:45 AM EDT 8:30 PM EDT
Astronomical Twilight 5:09 AM EDT 9:07 PM EDT
Moon 5:26 AM EDT (3/28) 5:14 PM EDT (3/28)
Length of Visible Light 13h 34m
Length of Day
12h 34m
Waning Crescent, 6% of the Moon is Illuminated
Mar 28
Waning Crescent
Mar 30
New
Apr 7
First Quarter
Apr 15
Full
Apr 22
Last Quarter

Hourly Weather History & Observations

Time (EDT) Temp. Windchill Dew Point Humidity Pressure Visibility Wind Dir Wind Speed Gust Speed Precip Events Conditions
12:00 AM 24.8 °F 15.3 °F 19.4 °F 80% 30.02 in 10.0 mi East 9.2 mph - N/A Snow Light Snow
12:18 AM 24.8 °F 15.3 °F 19.4 °F 80% 30.01 in 15.0 mi East 9.2 mph - N/A   Overcast
1:00 AM 24.8 °F 15.3 °F 19.4 °F 80% 30.00 in 10.0 mi East 9.2 mph - N/A   Overcast
2:00 AM 25 °F - 20 °F 73% 29.97 in 10 mi East 9.2 mph - -   Partly Cloudy
2:00 AM 24.8 °F 16.1 °F 19.4 °F 80% 29.97 in 10.0 mi East 8.1 mph - N/A   Overcast
2:33 AM 24.8 °F 15.3 °F 21.2 °F 86% 29.96 in 10.0 mi East 9.2 mph - N/A Snow Light Snow
2:51 AM 24.8 °F 15.3 °F 21.2 °F 86% 29.96 in 2.5 mi East 9.2 mph - N/A Snow Light Snow
3:00 AM 24.8 °F 15.3 °F 23.0 °F 93% 29.94 in 1.5 mi East 9.2 mph - N/A Snow Light Snow
3:16 AM 24.8 °F 16.1 °F 23.0 °F 93% 29.94 in 0.8 mi East 8.1 mph - N/A Snow Light Snow
3:37 AM 24.8 °F 15.3 °F 23.0 °F 93% 29.92 in 1.5 mi East 9.2 mph - N/A Snow Light Snow
3:48 AM 24.8 °F 15.3 °F 23.0 °F 93% 29.91 in 2.5 mi East 9.2 mph - N/A Snow Light Snow
4:00 AM 24.8 °F 15.3 °F 23.0 °F 93% 29.90 in 5.0 mi East 9.2 mph - N/A Snow Light Snow
4:20 AM 26.6 °F 16.8 °F 24.8 °F 93% 29.89 in 5.0 mi ESE 10.4 mph - N/A Snow Light Snow
4:34 AM 26.6 °F 17.5 °F 24.8 °F 93% 29.88 in 3.0 mi East 9.2 mph - N/A Snow Light Snow
4:50 AM 26.6 °F 17.5 °F 24.8 °F 93% 29.87 in 4.0 mi ESE 9.2 mph - N/A Rain , Snow Light Freezing Rain
5:00 AM 26.6 °F 17.5 °F 26.6 °F 100% 29.87 in 4.0 mi East 9.2 mph - N/A   Overcast
5:18 AM 28.4 °F 20.4 °F 26.6 °F 93% 29.87 in 4.0 mi ESE 8.1 mph - N/A Snow Light Snow
5:32 AM 28.4 °F 19.7 °F 26.6 °F 93% 29.85 in 2.0 mi ESE 9.2 mph - N/A Snow Light Snow
6:00 AM 30.2 °F 21.9 °F 28.4 °F 93% 29.84 in 3.0 mi SE 9.2 mph - N/A Snow Light Snow
6:11 AM 30.2 °F 21.9 °F 30.2 °F 100% 29.83 in 1.5 mi SE 9.2 mph - N/A Snow Light Snow
7:00 AM 33.8 °F 25.3 °F 32.0 °F 93% 29.80 in 3.0 mi SSE 11.5 mph - N/A Snow Light Snow
8:00 AM 34 °F - 32 °F 88% 29.78 in 5 mi SSE 6.9 mph - - Snow Light Snow
8:00 AM 33.8 °F 27.7 °F 32.0 °F 93% 29.78 in 5.0 mi SSE 6.9 mph - N/A Snow Light Snow
9:00 AM 35.6 °F 29.9 °F 32.0 °F 87% 29.76 in 10.0 mi SE 6.9 mph - N/A   Overcast
9:17 AM 35.6 °F 30.7 °F 32.0 °F 87% 29.75 in 8.0 mi SE 5.8 mph - N/A   Overcast
10:00 AM 37.4 °F 29.8 °F 33.8 °F 87% 29.75 in 10.0 mi South 11.5 mph - N/A   Overcast
11:00 AM 39.2 °F 31.6 °F 33.8 °F 81% 29.71 in 15.0 mi South 12.7 mph - N/A   Overcast
12:00 PM 39.2 °F 33.6 °F 33.8 °F 81% 29.70 in 15.0 mi South 8.1 mph - N/A   Overcast
12:53 PM 39.2 °F 33.0 °F 35.6 °F 87% 29.70 in 10.0 mi South 9.2 mph - N/A Rain Light Rain
1:00 PM 39.2 °F 32.5 °F 35.6 °F 87% 29.70 in 10.0 mi South 10.4 mph - N/A Rain Light Rain
2:00 PM 39 °F - 37 °F 90% 29.70 in 10 mi South 9.2 mph - - Rain Light Rain
2:00 PM 39.2 °F 33.6 °F 37.4 °F 93% 29.70 in 10.0 mi South 8.1 mph - N/A Rain Light Rain
2:36 PM 39.2 °F 33.6 °F 37.4 °F 93% 29.69 in 6.0 mi South 8.1 mph - N/A Rain Light Rain
3:00 PM 39.2 °F 33.6 °F 39.2 °F 100% 29.69 in 6.0 mi South 8.1 mph - N/A Rain Light Rain
3:26 PM 39.2 °F 32.0 °F 39.2 °F 100% 29.69 in 2.0 mi SSW 11.5 mph - N/A Rain Light Rain
4:00 PM 41.0 °F 33.9 °F 39.2 °F 93% 29.69 in 3.0 mi SSW 12.7 mph - N/A Rain Light Rain
4:25 PM 41.0 °F 33.9 °F 39.2 °F 93% 29.69 in 1.5 mi SSW 12.7 mph - N/A Rain Light Rain
4:45 PM 41.0 °F 34.3 °F 39.2 °F 93% 29.68 in 3.0 mi SSW 11.5 mph - N/A Rain Light Rain
5:00 PM 41.0 °F 34.7 °F 39.2 °F 93% 29.69 in 3.0 mi SSW 10.4 mph - N/A Rain Light Rain
5:19 PM 41.0 °F 34.7 °F 39.2 °F 93% 29.70 in 2.0 mi SSW 10.4 mph - N/A Rain Light Rain
5:20 PM 41.0 °F 34.7 °F 39.2 °F 93% 29.70 in 2.0 mi SSW 10.4 mph - N/A Rain Light Rain
5:29 PM 41.0 °F 34.3 °F 39.2 °F 93% 29.71 in 1.5 mi SSW 11.5 mph - N/A Rain Light Rain
6:00 PM 39.2 °F 32.0 °F 39.2 °F 100% 29.73 in 2.5 mi WSW 11.5 mph - N/A Rain Light Rain
6:16 PM 39.2 °F 33.6 °F 39.2 °F 100% 29.75 in 3.0 mi SW 8.1 mph 19.6 mph N/A Rain Light Rain
6:42 PM 39.2 °F 32.0 °F 39.2 °F 100% 29.78 in 4.0 mi West 11.5 mph 18.4 mph N/A Rain Light Rain
7:00 PM 39.2 °F 34.2 °F 37.4 °F 93% 29.79 in 4.0 mi West 6.9 mph - N/A Rain Light Rain
8:00 PM 38 °F - 38 °F 100% 29.86 in 4 mi West 8.1 mph - - Rain Light Rain
8:00 PM 39.2 °F 33.6 °F 37.4 °F 93% 29.86 in 4.0 mi West 8.1 mph - N/A   Overcast
8:33 PM 39.2 °F 32.5 °F 37.4 °F 93% 29.90 in 5.0 mi WNW 10.4 mph - N/A   Overcast
9:00 PM 39.2 °F 31.6 °F 37.4 °F 93% 29.94 in 8.0 mi WNW 12.7 mph - N/A   Overcast
9:18 PM 37.4 °F 28.9 °F 37.4 °F 100% 29.96 in 10.0 mi WNW 13.8 mph - N/A   Overcast
10:00 PM 37.4 °F 30.3 °F 35.6 °F 93% 30.02 in 15.0 mi WNW 10.4 mph - N/A   Overcast
11:00 PM 35.6 °F 24.8 °F 32.0 °F 87% 30.07 in 15.0 mi NW 19.6 mph - N/A   Overcast